When you browse on this site, cookies collect data to enhance your experience and personalize the content and advertising you see.
Visit our Privacy Policy to learn more. By continuing to use the site, you agree to this use of cookies and data.
  • In Austria
  • List of Countries
  • For 7 days
  • Water Temperature
  • Weather Map
  • News
  • Weather Widgets
  • user-avatar
    Login

    Hourly Weather Volostnovka

    Today, 7 June, Sunday

    Time Temperature Precipitation Wind Pressure Humidity
    00:00 +18°C° 0 mm 1 mps 754 mmHg 84%
    01:00 +16°C° 0 mm 1 mps 754 mmHg 85%
    02:00 +16°C° 0 mm 1 mps 754 mmHg 86%
    03:00 +16°C° 0 mm 1 mps 754 mmHg 86%
    04:00 +16°C° 0 mm 1 mps 754 mmHg 86%
    05:00 +18°C° 0 mm 1 mps 754 mmHg 83%
    06:00 +18°C° 0 mm 2 mps 754 mmHg 80%
    07:00 +19°C° 0 mm 2 mps 754 mmHg 77%
    08:00 +20°C° 0.1 mm 3 mps 754 mmHg 71%
    09:00 +22°C° 0.1 mm 3 mps 754 mmHg 65%
    10:00 +24°C° 0.1 mm 3 mps 754 mmHg 59%
    11:00 +24°C° 0.5 mm 3 mps 754 mmHg 60%
    12:00 +24°C° 0.5 mm 3 mps 754 mmHg 61%
    13:00 +24°C° 0.5 mm 3 mps 754 mmHg 62%
    14:00 +23°C° 0.3 mm 2 mps 754 mmHg 65%
    15:00 +21°C° 0.3 mm 2 mps 754 mmHg 68%
    16:00 +20°C° 0.3 mm 2 mps 754 mmHg 71%
    17:00 +19°C° 1.2 mm 2 mps 754 mmHg 78%
    18:00 +19°C° 1.2 mm 2 mps 754 mmHg 84%
    19:00 +18°C° 1.2 mm 2 mps 754 mmHg 91%
    20:00 +18°C° 1.4 mm 2 mps 754 mmHg 92%
    21:00 +17°C° 1.4 mm 2 mps 754 mmHg 93%
    22:00 +17°C° 1.4 mm 2 mps 754 mmHg 93%
    23:00 +17°C° 0.2 mm 2 mps 754 mmHg 93%

    Tomorrow, 8 June, Monday

    Time Temperature Precipitation Wind Pressure Humidity
    00:00 +17°C° 0.2 mm 2 mps 754 mmHg 93%
    01:00 +17°C° 0.2 mm 2 mps 753 mmHg 93%
    02:00 +17°C° 0 mm 3 mps 754 mmHg 93%
    03:00 +17°C° 0 mm 3 mps 754 mmHg 94%
    04:00 +16°C° 0 mm 3 mps 754 mmHg 94%
    05:00 +17°C° 0.1 mm 3 mps 754 mmHg 90%
    06:00 +18°C° 0.1 mm 3 mps 754 mmHg 86%
    07:00 +19°C° 0.1 mm 4 mps 754 mmHg 82%
    08:00 +19°C° 0.6 mm 3 mps 754 mmHg 79%
    09:00 +20°C° 0.6 mm 3 mps 754 mmHg 77%
    10:00 +20°C° 0.6 mm 3 mps 754 mmHg 74%
    11:00 +21°C° 0.1 mm 4 mps 754 mmHg 67%
    12:00 +23°C° 0.1 mm 5 mps 754 mmHg 61%
    13:00 +24°C° 0.1 mm 6 mps 754 mmHg 54%
    14:00 +24°C° 0 mm 6 mps 754 mmHg 53%
    15:00 +26°C° 0 mm 5 mps 754 mmHg 51%
    16:00 +26°C° 0 mm 5 mps 754 mmHg 50%
    17:00 +25°C° 0 mm 4 mps 754 mmHg 52%
    18:00 +23°C° 0 mm 4 mps 754 mmHg 55%
    19:00 +22°C° 0 mm 4 mps 753 mmHg 58%
    20:00 +21°C° 0 mm 4 mps 754 mmHg 56%
    21:00 +20°C° 0 mm 3 mps 754 mmHg 55%
    22:00 +19°C° 0 mm 3 mps 754 mmHg 54%
    23:00 +19°C° 0 mm 3 mps 754 mmHg 54%

    Day after tomorrow, 9 June, Tuesday

    Time Temperature Precipitation Wind Pressure Humidity
    00:00 +19°C° 0 mm 4 mps 754 mmHg 55%
    01:00 +19°C° 0 mm 5 mps 754 mmHg 55%
    02:00 +19°C° 0 mm 5 mps 754 mmHg 54%
    03:00 +19°C° 0 mm 5 mps 755 mmHg 53%
    04:00 +19°C° 0 mm 5 mps 755 mmHg 51%
    05:00 +19°C° 0 mm 5 mps 755 mmHg 54%
    06:00 +19°C° 0 mm 6 mps 756 mmHg 56%
    07:00 +20°C° 0 mm 6 mps 756 mmHg 58%
    08:00 +22°C° 0 mm 6 mps 756 mmHg 53%
    09:00 +24°C° 0 mm 6 mps 756 mmHg 48%
    10:00 +27°C° 0 mm 7 mps 757 mmHg 44%
    11:00 +28°C° 0 mm 7 mps 757 mmHg 41%
    12:00 +28°C° 0 mm 6 mps 757 mmHg 38%
    13:00 +29°C° 0 mm 6 mps 757 mmHg 35%
    14:00 +29°C° 0 mm 6 mps 757 mmHg 36%
    15:00 +29°C° 0 mm 6 mps 757 mmHg 37%
    16:00 +29°C° 0 mm 5 mps 757 mmHg 38%
    17:00 +28°C° 0 mm 5 mps 757 mmHg 43%
    18:00 +27°C° 0 mm 5 mps 757 mmHg 49%
    19:00 +26°C° 0 mm 4 mps 757 mmHg 55%
    20:00 +25°C° 0 mm 5 mps 757 mmHg 55%
    21:00 +23°C° 0 mm 5 mps 757 mmHg 55%
    22:00 +21°C° 0 mm 5 mps 757 mmHg 56%
    23:00 +21°C° 0 mm 5 mps 757 mmHg 55%

    10 June, Wednesday

    Time Temperature Precipitation Wind Pressure Humidity
    00:00 +20°C° 0 mm 5 mps 757 mmHg 54%
    01:00 +20°C° 0 mm 4 mps 757 mmHg 53%
    02:00 +19°C° 0 mm 4 mps 757 mmHg 55%
    03:00 +19°C° 0 mm 4 mps 757 mmHg 57%
    04:00 +18°C° 0 mm 4 mps 757 mmHg 60%
    05:00 +19°C° 0 mm 5 mps 757 mmHg 59%
    06:00 +20°C° 0 mm 5 mps 757 mmHg 59%
    07:00 +21°C° 0 mm 5 mps 758 mmHg 59%
    08:00 +22°C° 0 mm 5 mps 758 mmHg 55%
    09:00 +25°C° 0 mm 5 mps 758 mmHg 52%
    10:00 +26°C° 0 mm 5 mps 758 mmHg 48%
    11:00 +27°C° 0 mm 4 mps 758 mmHg 46%
    12:00 +28°C° 0 mm 4 mps 758 mmHg 43%
    13:00 +29°C° 0 mm 4 mps 758 mmHg 40%
    14:00 +29°C° 0 mm 3 mps 758 mmHg 42%
    15:00 +28°C° 0 mm 3 mps 758 mmHg 45%
    16:00 +28°C° 0 mm 2 mps 757 mmHg 47%
    17:00 +27°C° 0 mm 2 mps 757 mmHg 47%
    18:00 +27°C° 0 mm 2 mps 757 mmHg 48%
    19:00 +26°C° 0 mm 3 mps 757 mmHg 49%
    20:00 +25°C° 0 mm 3 mps 757 mmHg 49%
    21:00 +25°C° 0 mm 3 mps 757 mmHg 49%
    22:00 +23°C° 0 mm 4 mps 757 mmHg 49%
    23:00 +24°C° 0 mm 3 mps 757 mmHg 50%

    11 June, Thursday

    Time Temperature Precipitation Wind Pressure Humidity
    00:00 +22°C° 0 mm 3 mps 757 mmHg 50%
    01:00 +22°C° 0 mm 3 mps 757 mmHg 51%
    02:00 +21°C° 0 mm 3 mps 757 mmHg 53%
    03:00 +21°C° 0 mm 3 mps 757 mmHg 56%
    04:00 +20°C° 0 mm 2 mps 757 mmHg 58%
    05:00 +21°C° 0 mm 2 mps 757 mmHg 59%
    06:00 +22°C° 0 mm 3 mps 757 mmHg 60%
    07:00 +24°C° 0 mm 3 mps 757 mmHg 61%
    08:00 +25°C° 0 mm 3 mps 757 mmHg 57%
    09:00 +27°C° 0 mm 3 mps 757 mmHg 53%
    10:00 +28°C° 0 mm 4 mps 756 mmHg 49%
    11:00 +29°C° 0 mm 4 mps 756 mmHg 45%
    12:00 +30°C° 0 mm 3 mps 756 mmHg 41%
    13:00 +31°C° 0 mm 3 mps 756 mmHg 37%
    14:00 +33°C° 0 mm 3 mps 756 mmHg 36%
    15:00 +33°C° 0 mm 3 mps 755 mmHg 35%
    16:00 +33°C° 0 mm 3 mps 755 mmHg 35%
    17:00 +31°C° 0 mm 2 mps 755 mmHg 38%
    18:00 +31°C° 0 mm 1 mps 754 mmHg 42%
    19:00 +30°C° 0 mm 1 mps 754 mmHg 46%
    20:00 +28°C° 0 mm 1 mps 754 mmHg 47%
    21:00 +26°C° 0 mm 1 mps 754 mmHg 47%
    22:00 +24°C° 0 mm 1 mps 754 mmHg 48%
    23:00 +24°C° 0 mm 1 mps 754 mmHg 47%

    12 June, Friday

    Time Temperature Precipitation Wind Pressure Humidity
    00:00 +24°C° 0 mm 2 mps 753 mmHg 46%
    01:00 +23°C° 0 mm 2 mps 753 mmHg 45%
    02:00 +21°C° 0 mm 2 mps 753 mmHg 44%
    03:00 +22°C° 0 mm 1 mps 753 mmHg 42%
    04:00 +21°C° 0 mm 1 mps 752 mmHg 40%
    05:00 +22°C° 0 mm 1 mps 752 mmHg 43%
    06:00 +23°C° 0 mm 1 mps 752 mmHg 45%
    07:00 +24°C° 0 mm 1 mps 752 mmHg 47%
    08:00 +26°C° 0.1 mm 1 mps 752 mmHg 44%
    09:00 +27°C° 0.1 mm 1 mps 752 mmHg 41%
    10:00 +29°C° 0.1 mm 1 mps 752 mmHg 38%
    11:00 +30°C° 0 mm 1 mps 752 mmHg 36%
    12:00 +31°C° 0 mm 2 mps 751 mmHg 33%
    13:00 +32°C° 0 mm 2 mps 751 mmHg 31%
    14:00 +32°C° 0 mm 2 mps 751 mmHg 31%
    15:00 +32°C° 0 mm 2 mps 750 mmHg 30%
    16:00 +32°C° 0 mm 2 mps 750 mmHg 29%
    17:00 +31°C° 0 mm 2 mps 750 mmHg 34%
    18:00 +31°C° 0 mm 1 mps 749 mmHg 39%
    19:00 +30°C° 0 mm 1 mps 749 mmHg 44%
    20:00 +28°C° 0 mm 2 mps 749 mmHg 47%
    21:00 +25°C° 0 mm 2 mps 749 mmHg 50%
    22:00 +22°C° 0 mm 3 mps 749 mmHg 52%
    23:00 +21°C° 0.1 mm 3 mps 749 mmHg 58%
    Show more